• In Netherlands
  • List of Countries
  • For 7 days
  • Water Temperature
  • Satellite Maps
  • Weather Map
  • Weather Widgets
  • user-avatar
    Login

    Hourly Weather Sylhet

    Today, 25 September, Monday

    Time Temperature Precipitation Wind Pressure Humidity
    00:00 +30°C° 0 mm 1 mps 753 mmHg 79%
    01:00 +30°C° 0.2 mm 1 mps 752 mmHg 80%
    02:00 +29°C° 0.2 mm 1 mps 752 mmHg 81%
    03:00 +29°C° 0.2 mm 1 mps 752 mmHg 83%
    04:00 +29°C° 0.3 mm 1 mps 752 mmHg 84%
    05:00 +29°C° 0.3 mm 1 mps 752 mmHg 85%
    06:00 +29°C° 0 mm 1 mps 753 mmHg 88%
    07:00 +30°C° 1.8 mm 1 mps 753 mmHg 83%
    08:00 +32°C° 1.8 mm 1 mps 753 mmHg 78%
    09:00 +33°C° 1.8 mm 1 mps 753 mmHg 73%
    10:00 +34°C° 0.4 mm 1 mps 752 mmHg 68%
    11:00 +35°C° 0.4 mm 1 mps 752 mmHg 62%
    12:00 +35°C° 0 mm 0 mps 752 mmHg 55%
    13:00 +37°C° 0 mm 1 mps 752 mmHg 54%
    14:00 +37°C° 0 mm 1 mps 751 mmHg 54%
    15:00 +37°C° 0 mm 1 mps 750 mmHg 53%
    16:00 +36°C° 0 mm 1 mps 750 mmHg 57%
    17:00 +34°C° 0 mm 1 mps 750 mmHg 61%
    18:00 +33°C° 0 mm 1 mps 750 mmHg 66%
    19:00 +32°C° 0 mm 1 mps 750 mmHg 68%
    20:00 +32°C° 0 mm 1 mps 751 mmHg 70%
    21:00 +31°C° 0 mm 1 mps 752 mmHg 72%
    22:00 +31°C° 0 mm 1 mps 752 mmHg 73%
    23:00 +31°C° 0 mm 1 mps 752 mmHg 74%

    Tomorrow, 26 September, Tuesday

    Time Temperature Precipitation Wind Pressure Humidity
    00:00 +30°C° 0 mm 1 mps 752 mmHg 76%
    01:00 +30°C° 0 mm 1 mps 752 mmHg 77%
    02:00 +30°C° 0 mm 1 mps 752 mmHg 78%
    03:00 +28°C° 0 mm 0 mps 752 mmHg 79%
    04:00 +29°C° 0 mm 1 mps 752 mmHg 80%
    05:00 +29°C° 0 mm 1 mps 752 mmHg 82%
    06:00 +29°C° 0 mm 1 mps 752 mmHg 83%
    07:00 +30°C° 0 mm 1 mps 753 mmHg 78%
    08:00 +32°C° 0 mm 1 mps 753 mmHg 72%
    09:00 +34°C° 0 mm 1 mps 754 mmHg 67%
    10:00 +35°C° 0 mm 1 mps 753 mmHg 62%
    11:00 +36°C° 0 mm 1 mps 753 mmHg 57%
    12:00 +37°C° 0 mm 1 mps 752 mmHg 52%
    13:00 +37°C° 0 mm 1 mps 751 mmHg 51%
    14:00 +39°C° 0 mm 1 mps 751 mmHg 51%
    15:00 +39°C° 0 mm 1 mps 750 mmHg 50%
    16:00 +36°C° 0 mm 1 mps 750 mmHg 55%
    17:00 +35°C° 0 mm 1 mps 750 mmHg 59%
    18:00 +33°C° 0 mm 1 mps 751 mmHg 64%
    19:00 +33°C° 0 mm 1 mps 751 mmHg 66%
    20:00 +32°C° 0 mm 1 mps 752 mmHg 69%
    21:00 +32°C° 0 mm 1 mps 753 mmHg 71%
    22:00 +32°C° 0 mm 1 mps 753 mmHg 73%
    23:00 +31°C° 0 mm 1 mps 753 mmHg 74%

    Day after tomorrow, 27 September, Wednesday

    Time Temperature Precipitation Wind Pressure Humidity
    00:00 +31°C° 0 mm 1 mps 753 mmHg 75%
    01:00 +31°C° 0.2 mm 1 mps 753 mmHg 76%
    02:00 +30°C° 0.2 mm 1 mps 752 mmHg 77%
    03:00 +30°C° 0.2 mm 1 mps 752 mmHg 79%
    04:00 +30°C° 0.3 mm 1 mps 752 mmHg 80%
    05:00 +30°C° 0.3 mm 1 mps 753 mmHg 81%
    06:00 +29°C° 0.3 mm 1 mps 753 mmHg 82%
    07:00 +30°C° 0.4 mm 1 mps 753 mmHg 80%
    08:00 +31°C° 0.4 mm 1 mps 754 mmHg 78%
    09:00 +32°C° 0.4 mm 1 mps 755 mmHg 75%
    10:00 +33°C° 0.6 mm 1 mps 754 mmHg 70%
    11:00 +34°C° 0.6 mm 1 mps 753 mmHg 65%
    12:00 +35°C° 0.6 mm 1 mps 753 mmHg 60%
    13:00 +36°C° 0 mm 1 mps 752 mmHg 59%
    14:00 +36°C° 0 mm 1 mps 751 mmHg 57%
    15:00 +36°C° 0 mm 1 mps 751 mmHg 56%
    16:00 +35°C° 0 mm 1 mps 751 mmHg 60%
    17:00 +34°C° 0 mm 1 mps 751 mmHg 64%
    18:00 +33°C° 0 mm 1 mps 751 mmHg 68%
    19:00 +32°C° 0.6 mm 1 mps 752 mmHg 71%
    20:00 +32°C° 0.6 mm 1 mps 752 mmHg 74%
    21:00 +31°C° 0.6 mm 1 mps 753 mmHg 78%
    22:00 +30°C° 0.7 mm 1 mps 753 mmHg 80%
    23:00 +30°C° 0.7 mm 1 mps 753 mmHg 83%

    28 September, Thursday

    Time Temperature Precipitation Wind Pressure Humidity
    00:00 +30°C° 0.7 mm 1 mps 753 mmHg 86%
    01:00 +29°C° 0.3 mm 1 mps 752 mmHg 87%
    02:00 +29°C° 0.3 mm 1 mps 752 mmHg 88%
    03:00 +29°C° 0.3 mm 1 mps 752 mmHg 89%
    04:00 +27°C° 0.3 mm 0 mps 752 mmHg 89%
    05:00 +27°C° 0.3 mm 0 mps 752 mmHg 89%
    06:00 +27°C° 0.3 mm 0 mps 752 mmHg 89%
    07:00 +28°C° 0.2 mm 0 mps 753 mmHg 86%
    08:00 +31°C° 0.2 mm 1 mps 753 mmHg 83%
    09:00 +32°C° 0.2 mm 1 mps 754 mmHg 80%
    10:00 +33°C° 1.3 mm 1 mps 753 mmHg 75%
    11:00 +33°C° 1.3 mm 1 mps 753 mmHg 70%
    12:00 +34°C° 1.3 mm 1 mps 752 mmHg 65%
    13:00 +34°C° 0.6 mm 1 mps 751 mmHg 65%
    14:00 +34°C° 0.6 mm 1 mps 751 mmHg 66%
    15:00 +35°C° 0.6 mm 2 mps 750 mmHg 66%
    16:00 +34°C° 0.1 mm 2 mps 750 mmHg 71%
    17:00 +32°C° 0.1 mm 2 mps 751 mmHg 75%
    18:00 +31°C° 0.1 mm 2 mps 751 mmHg 79%
    19:00 +30°C° 0.7 mm 2 mps 752 mmHg 82%
    20:00 +30°C° 0.7 mm 1 mps 752 mmHg 84%
    21:00 +29°C° 0.7 mm 1 mps 753 mmHg 87%
    22:00 +29°C° 2 mm 1 mps 753 mmHg 88%
    23:00 +28°C° 2 mm 2 mps 753 mmHg 89%

    29 September, Friday

    Time Temperature Precipitation Wind Pressure Humidity
    00:00 +28°C° 2 mm 2 mps 753 mmHg 90%
    01:00 +28°C° 2.7 mm 2 mps 752 mmHg 91%
    02:00 +27°C° 2.7 mm 2 mps 752 mmHg 92%
    03:00 +27°C° 2.7 mm 2 mps 752 mmHg 93%
    04:00 +27°C° 4 mm 2 mps 752 mmHg 93%
    05:00 +27°C° 4 mm 2 mps 752 mmHg 94%
    06:00 +27°C° 4 mm 2 mps 753 mmHg 94%
    07:00 +27°C° 1.2 mm 2 mps 753 mmHg 93%
    08:00 +28°C° 1.2 mm 2 mps 754 mmHg 91%
    09:00 +28°C° 1.2 mm 2 mps 754 mmHg 90%
    10:00 +29°C° 1.1 mm 2 mps 754 mmHg 85%
    11:00 +31°C° 1.1 mm 2 mps 753 mmHg 81%
    12:00 +32°C° 1.1 mm 2 mps 753 mmHg 77%
    13:00 +33°C° 2 mm 3 mps 752 mmHg 77%
    14:00 +33°C° 2 mm 3 mps 751 mmHg 78%
    15:00 +33°C° 2 mm 3 mps 751 mmHg 78%
    16:00 +31°C° 1 mm 2 mps 751 mmHg 81%
    17:00 +30°C° 1 mm 2 mps 752 mmHg 84%
    18:00 +29°C° 1 mm 2 mps 752 mmHg 88%
    19:00 +28°C° 0.3 mm 2 mps 753 mmHg 88%
    20:00 +28°C° 0.3 mm 2 mps 753 mmHg 89%
    21:00 +28°C° 0.3 mm 2 mps 754 mmHg 89%
    22:00 +28°C° 1.1 mm 2 mps 754 mmHg 90%
    23:00 +28°C° 1.1 mm 1 mps 754 mmHg 90%

    30 September, Saturday

    Time Temperature Precipitation Wind Pressure Humidity
    00:00 +27°C° 1.1 mm 1 mps 754 mmHg 91%
    01:00 +27°C° 1.1 mm 1 mps 754 mmHg 92%
    02:00 +27°C° 1.1 mm 1 mps 753 mmHg 92%
    03:00 +27°C° 1.1 mm 2 mps 753 mmHg 93%
    04:00 +27°C° 0.6 mm 2 mps 754 mmHg 93%
    05:00 +27°C° 0.6 mm 2 mps 754 mmHg 94%
    06:00 +26°C° 0.6 mm 2 mps 754 mmHg 94%
    07:00 +27°C° 0.4 mm 2 mps 755 mmHg 92%
    08:00 +28°C° 0.4 mm 3 mps 755 mmHg 89%
    09:00 +29°C° 0.4 mm 3 mps 756 mmHg 86%
    10:00 +30°C° 0.8 mm 3 mps 755 mmHg 83%
    11:00 +30°C° 0.8 mm 3 mps 755 mmHg 81%
    12:00 +31°C° 0.8 mm 3 mps 754 mmHg 78%
    13:00 +32°C° 1 mm 2 mps 754 mmHg 76%
    14:00 +32°C° 1 mm 2 mps 753 mmHg 74%
    15:00 +32°C° 1 mm 2 mps 753 mmHg 73%
    16:00 +31°C° 1.2 mm 2 mps 753 mmHg 76%
    17:00 +30°C° 1.2 mm 1 mps 753 mmHg 80%
    18:00 +29°C° 1.2 mm 1 mps 754 mmHg 83%
    19:00 +29°C° 0.7 mm 1 mps 754 mmHg 84%
    20:00 +29°C° 0.7 mm 1 mps 755 mmHg 84%
    21:00 +28°C° 0.7 mm 1 mps 755 mmHg 85%
    22:00 +28°C° 0.7 mm 2 mps 755 mmHg 86%
    23:00 +28°C° 0.7 mm 2 mps 755 mmHg 87%
    Show more